Regional Weather Roundup
Issued by NWS Sterling, VA

Home | Current Version | Previous Version | Text Only | Print | Product List | Glossary Off
Versions: 1 2 3 4 5 6 7 8 9 10 11 12 13 14 15 16 17 18 19 20 21 22 23 24 25 26 27 28 29 30 31 32 33 34 35 36 37 38 39 40 41 42 43 44 45 46 47 48 49 50

388
ASUS41 KLWX 171811
RWRLWX

REGIONAL WEATHER ROUNDUP
NATIONAL WEATHER SERVICE BALTIMORE MD/WASHINGTON DC
200 PM EDT TUE OCT 17 2017

Note: "FAIR" indicates few or no clouds below 12,000 feet
with no significant weather and/or obstructions to visibility.
 TC=TEMPERATURE CELSIUS

 * =Non NWS site. Station does not report precipitation (e.g. rain,
    snow, etc.), thunder, or fog.

DCZ001-MDZ009-015-VAZ040>042-051-053>054-171900-
WASHINGTON METRO

CITY           SKY/WX    TMP DP  RH WIND       PRES   REMARKS
WASHINGTON NAT SUNNY     60  33  36 NE5       30.34F
DULLES         SUNNY     60  31  33 N8        30.33F
ANDREWS AFB    SUNNY     58  29  33 NW3       30.32F
FT BELVOIR     SUNNY     61  32  34 CALM      30.32F
QUANTICO       SUNNY     60  35  39 E8        30.34F
COLLEGE PARK*  SUNNY     59  33  37 W3        30.33F
LEESBURG*      SUNNY     61  37  41 W6        30.34F
MANASSAS*      SUNNY     61  32  33 NW5       30.33F
GAITHERSBURG*  SUNNY     59  32  36 VRB3      30.33F

$$

MDZ006>007-011-014-171900-
BALTIMORE METRO

CITY           SKY/WX    TMP DP  RH WIND       PRES   REMARKS
BWI AIRPORT    MOSUNNY   59  32  36 VRB3      30.32F
MD SCIENCE CTR   N/A     60  32  34 MISG      30.32F
MARTIN STATE   SUNNY     59  37  44 W5        30.34F
ANNAPOLIS      SUNNY     59  35  40 CALM      30.33F
FORT MEADE*    SUNNY     59  32  36 N5        30.35F

$$

MDZ012-015-019>023-171900-
MARYLAND EASTERN SHORE

CITY           SKY/WX    TMP DP  RH WIND       PRES   REMARKS
OCEAN CITY     SUNNY     58  39  49 NE9       30.32F
SALISBURY      SUNNY     59  38  45 N6        30.32F
CAMBRIDGE*     SUNNY     57  36  44 N8        30.33F
EASTON*        SUNNY     59  32  36 N5        30.36F

$$

MDZ017>025-171900-
SOUTHERN MARYLAND

CITY           SKY/WX    TMP DP  RH WIND       PRES   REMARKS
PATUXENT RIVER MOSUNNY   58  39  49 N10       30.33F
ST INIGOES     SUNNY     59  40  49 VRB3      30.33F
LEONARDTOWN*   NOT AVBL

$$

MDZ003>005-171900-
NORTH CENTRAL MARYLAND

CITY           SKY/WX    TMP DP  RH WIND       PRES   REMARKS
FREDERICK*     SUNNY     61  30  31 CALM      30.36F
HAGERSTOWN APT SUNNY     59  33  37 SW5       30.31F
WESTMINSTER*   SUNNY     57  32  38 NW6       30.32F

$$

MDZ501>502-171900-
WESTERN MARYLAND

CITY           SKY/WX    TMP DP  RH WIND       PRES   REMARKS
OAKLAND*       SUNNY     50  32  50 NW6       30.29F
CUMBERLAND*    SUNNY     61  36  39 S5        30.35F

$$

VAZ025>031-171900-
SHENANDOAH VALLEY

CITY           SKY/WX    TMP DP  RH WIND       PRES   REMARKS
WINCHESTER*    SUNNY     57  32  38 NW3       30.32F
FRONT ROYAL*   SUNNY     59  32  36 CALM      30.31F
LURAY*         SUNNY     59  32  36 CALM      30.33F
NEW MARKET*    SUNNY     62  31  30 E7        30.32F
STAUNTON*      SUNNY     58  28  32 N5        30.35F
WAYNESBORO*    SUNNY     57  30  35 NW5       30.33F

$$

WVZ021-048>050-054>055-171900-
EASTERN WEST VIRGINIA PANHANDLE

CITY           SKY/WX    TMP DP  RH WIND       PRES   REMARKS
MARTINSBURG    SUNNY     60  31  33 CALM      30.31F
PETERSBURG*    SUNNY     60  36  40 CALM      30.31F

$$

VAZ036>039-050-171900-
CENTRAL FOOTHILLS

CITY           SKY/WX    TMP DP  RH WIND       PRES   REMARKS
CHARLOTTESVILL SUNNY     62  35  36 NE5       30.33F
CULPEPER*      SUNNY     62  29  28 W5        30.34F
ORANGE*        SUNNY     59  32  36 NW3       30.33F
GORDONSVILLE*  SUNNY     60  32  35 N5        30.33F
WARRENTON*     SUNNY     64  23  21 NE5       30.33F

$$

VAZ055>057-171900-
NORTH AND CENTRAL PIEDMONT

CITY           SKY/WX    TMP DP  RH WIND       PRES   REMARKS
FREDERICKSBRG* SUNNY     61  35  37 N5        30.32F
STAFFORD*      SUNNY     60  31  33 N6        30.37F

$$

NCZ024-NYZ072-PAZ021-071-VAZ022-071-171900-
OTHER REGIONAL OBSERVATIONS

CITY           SKY/WX    TMP DP  RH WIND       PRES   REMARKS
NEW YORK CITY  SUNNY     56  29  35 VRB5      30.31F
PHILADELPHIA   SUNNY     58  31  35 NW7       30.31F
PITTSBURGH     MOSUNNY   59  37  44 S10G17    30.30F
ROANOKE        SUNNY     61  34  36 VRB3      30.35F
RICHMOND       MOSUNNY   62  32  32 N12       30.33F
RALEIGH        MOSUNNY   62  37  39 NE8G17    30.33F

$$

ANZ530>537-171900-
MARINE OBSERVATIONS

STATION/POSITION TIME  TEMP    WIND        PRES
                       AIR SEA DIR/SP/G
                 (UTC) (F)     (DEG/KT/KT) (MB)
THOMAS PT LIGHT  1800   53 67   60/  7/  9   N/A
BALT KEY BRIDGE  1742   55     260/  2/  3 1027.0F
COVE POINT       1742   53      20/ 10/ 14 1028.0F
LEWISETTA        1742   55 63  360/  4/  6 1027.3F
SOLOMONS ISLAND  1742   55 70   10/  8/ 14 1027.0F
PINEY POINT      1742           60/  3/  4   N/A

$$





USA.gov is the U.S. government's official web portal to all federal, state and local government web resources and services.